Total_Precipitation_Accumulation
1.31 1.30 1.33 1.52 1.53 1.58 1.56 1.30 1.09 1.12 1.15 1.14 1.00 0.98 1.05 1.04 1.05 1.19 1.30 1.25 1.21 1.33 1.51 1.58 1.59 1.54 1.51 1.50 1.47 1.48 1.44 1.38 1.28 1.19 1.02 0.89 0.85 0.81 0.80 0.80 0.78 0.75 0.75
1.52 1.56 1.58 1.65 1.65 1.80 1.84 1.61 1.43 1.50 1.45 1.41 1.23 1.16 1.15 1.22 1.21 1.28 1.34 1.33 1.20 1.16 1.32 1.53 1.65 1.68 1.69 1.66 1.57 1.51 1.49 1.46 1.40 1.25 1.10 1.00 0.93 0.88 0.84 0.86 0.86 0.83 0.77
1.86 1.96 2.03 1.96 1.88 1.85 1.91 1.84 1.72 1.70 1.68 1.50 1.39 1.39 1.40 1.28 1.21 1.34 1.45 1.47 1.38 1.32 1.37 1.42 1.51 1.66 1.84 1.89 1.84 1.73 1.63 1.58 1.49 1.39 1.28 1.18 1.06 0.99 0.93 0.91 0.90 0.88 0.83
2.09 2.31 2.37 2.16 2.02 1.94 2.04 2.11 2.00 1.97 1.95 1.89 1.63 1.43 1.47 1.44 1.34 1.35 1.38 1.43 1.54 1.49 1.47 1.40 1.42 1.51 1.65 1.77 1.87 1.90 1.85 1.74 1.66 1.56 1.46 1.37 1.29 1.16 1.03 0.97 0.93 0.90 0.89
2.13 2.35 2.45 2.42 2.20 2.16 2.24 2.18 2.34 2.24 2.21 2.05 1.72 1.52 1.39 1.30 1.32 1.28 1.29 1.35 1.39 1.40 1.44 1.46 1.46 1.47 1.56 1.66 1.76 1.83 1.85 1.83 1.76 1.65 1.59 1.54 1.43 1.27 1.16 1.10 1.03 1.00 1.00
2.28 2.50 2.55 2.60 2.47 2.49 2.56 2.53 2.53 2.38 2.18 2.03 1.78 1.61 1.38 1.17 1.15 1.20 1.20 1.19 1.15 1.16 1.21 1.28 1.38 1.37 1.44 1.51 1.63 1.83 2.08 2.12 1.98 1.82 1.73 1.65 1.53 1.35 1.23 1.21 1.14 1.09 1.07
2.94 3.07 3.01 2.92 2.74 2.68 2.68 2.62 2.48 2.39 2.25 2.19 2.08 1.83 1.49 1.18 1.05 1.01 1.06 1.07 1.02 1.01 1.05 1.14 1.21 1.23 1.28 1.34 1.41 1.61 1.94 2.17 2.12 1.98 1.85 1.74 1.65 1.55 1.46 1.39 1.33 1.24 1.15
3.55 3.49 3.40 3.15 2.91 2.74 2.59 2.46 2.32 2.22 2.10 2.06 2.06 2.01 1.74 1.45 1.13 0.91 0.99 1.02 0.99 1.01 1.01 1.00 1.04 1.05 1.04 1.14 1.29 1.43 1.61 1.74 1.87 1.97 1.90 1.76 1.67 1.63 1.61 1.59 1.54 1.44 1.33
3.37 3.27 3.18 3.05 2.85 2.67 2.51 2.46 2.37 2.28 2.15 2.11 2.10 2.14 1.99 1.64 1.26 1.02 0.92 0.95 0.98 1.01 1.04 1.03 0.98 0.99 1.02 1.05 1.14 1.35 1.48 1.49 1.54 1.63 1.76 1.74 1.65 1.63 1.64 1.66 1.65 1.62 1.58
3.07 2.93 2.93 2.90 2.78 2.60 2.43 2.28 2.23 2.22 2.23 2.14 2.02 1.84 1.71 1.51 1.42 1.26 1.09 1.01 0.96 0.97 1.00 0.99 0.96 0.95 1.00 1.04 1.19 1.34 1.38 1.35 1.35 1.36 1.41 1.47 1.50 1.54 1.58 1.60 1.63 1.68 1.72
2.81 2.67 2.65 2.56 2.40 2.27 2.13 1.99 1.92 1.93 1.95 1.93 1.88 1.79 1.73 1.58 1.44 1.35 1.26 1.16 1.09 1.01 0.95 0.94 0.94 0.95 0.99 1.00 1.08 1.18 1.26 1.20 1.20 1.23 1.28 1.34 1.40 1.48 1.57 1.65 1.74 1.83 1.92
2.63 2.39 2.17 2.09 2.05 1.90 1.68 1.55 1.51 1.50 1.53 1.57 1.63 1.60 1.52 1.51 1.48 1.44 1.35 1.25 1.20 1.16 1.07 1.04 0.99 0.97 1.01 0.98 0.98 1.14 1.13 1.11 1.10 1.09 1.12 1.19 1.21 1.26 1.36 1.47 1.64 1.82 1.95
2.15 1.93 1.74 1.63 1.59 1.57 1.47 1.34 1.27 1.20 1.19 1.24 1.28 1.38 1.40 1.37 1.33 1.38 1.44 1.42 1.31 1.21 1.09 1.02 0.91 0.84 0.87 0.94 1.05 1.08 1.00 0.98 0.94 0.93 0.95 1.05 1.12 1.13 1.10 1.16 1.28 1.46 1.60
1.70 1.49 1.36 1.25 1.16 1.08 1.05 1.05 1.09 1.08 1.06 1.10 1.12 1.21 1.28 1.28 1.28 1.29 1.32 1.43 1.44 1.30 1.14 1.02 0.90 0.82 0.82 0.85 0.95 0.86 0.84 0.83 0.80 0.82 0.85 0.91 0.98 1.08 1.06 1.00 0.98 1.03 1.11
1.26 1.14 1.06 1.00 0.95 0.90 0.86 0.85 0.88 0.93 0.94 0.96 0.99 1.04 1.09 1.07 1.09 1.14 1.19 1.26 1.35 1.32 1.20 1.03 0.98 0.93 0.90 0.88 0.96 0.83 0.83 0.78 0.76 0.83 0.85 0.90 0.97 1.11 1.15 1.04 0.95 0.86 0.82
0.98 0.89 0.84 0.83 0.80 0.77 0.76 0.80 0.80 0.80 0.81 0.80 0.79 0.78 0.78 0.77 0.80 0.83 0.90 0.99 1.09 1.17 1.16 0.99 0.91 0.95 0.93 0.85 0.98 0.89 0.85 0.85 0.82 1.02 1.14 1.08 1.05 1.22 1.37 1.31 1.13 1.00 0.93
0.74 0.73 0.68 0.65 0.65 0.66 0.65 0.67 0.63 0.60 0.58 0.58 0.57 0.59 0.64 0.64 0.67 0.69 0.71 0.82 0.98 1.09 1.19 1.03 0.90 0.94 0.98 0.93 0.96 0.94 0.89 0.87 0.97 1.36 1.58 1.76 1.50 1.40 1.48 1.43 1.29 1.10 0.98
0.66 0.65 0.59 0.53 0.51 0.49 0.47 0.45 0.44 0.44 0.46 0.48 0.49 0.52 0.55 0.57 0.59 0.62 0.67 0.75 0.87 1.04 1.21 1.18 1.02 1.02 1.02 1.00 1.06 1.05 0.93 0.82 0.87 1.32 1.65 1.97 1.94 1.73 1.73 1.57 1.37 1.15 1.01
0.57 0.55 0.52 0.49 0.44 0.43 0.40 0.36 0.37 0.38 0.40 0.41 0.45 0.50 0.55 0.63 0.65 0.67 0.72 0.75 0.81 0.90 1.10 1.22 1.14 1.12 1.17 1.19 1.31 1.21 1.05 1.01 0.83 1.08 1.50 1.84 2.03 2.09 2.18 2.02 1.70 1.33 1.06
0.54 0.56 0.55 0.45 0.37 0.33 0.32 0.31 0.30 0.32 0.34 0.37 0.42 0.49 0.56 0.66 0.73 0.75 0.74 0.77 0.82 0.91 1.02 1.18 1.22 1.22 1.26 1.32 1.37 1.35 1.19 1.04 0.92 0.91 1.36 1.84 2.18 2.23 2.42 2.52 2.20 1.69 1.26
0.51 0.49 0.50 0.47 0.41 0.33 0.29 0.28 0.28 0.31 0.37 0.43 0.45 0.47 0.52 0.63 0.72 0.68 0.64 0.67 0.79 0.97 1.04 1.18 1.24 1.22 1.19 1.28 1.29 1.14 1.06 0.97 0.87 0.84 1.04 1.45 2.13 2.47 2.55 2.63 2.51 1.99 1.50
0.55 0.49 0.46 0.46 0.43 0.32 0.32 0.31 0.29 0.34 0.41 0.47 0.50 0.51 0.48 0.51 0.51 0.51 0.57 0.63 0.72 0.93 1.21 1.37 1.32 1.25 1.12 1.10 1.11 1.07 1.07 1.03 0.98 0.78 0.77 1.09 1.65 2.37 2.62 2.63 2.57 2.00 1.46
0.54 0.48 0.44 0.45 0.44 0.37 0.34 0.32 0.31 0.36 0.46 0.52 0.55 0.55 0.45 0.40 0.47 0.52 0.56 0.61 0.72 0.85 1.09 1.42 1.50 1.27 1.17 1.11 1.14 1.16 1.18 1.20 1.11 0.81 0.80 1.08 1.46 2.11 2.33 2.37 2.27 1.71 1.29
0.52 0.52 0.50 0.48 0.45 0.37 0.33 0.33 0.32 0.37 0.48 0.51 0.51 0.52 0.55 0.53 0.50 0.52 0.56 0.66 0.81 0.93 1.02 1.11 1.39 1.22 1.01 0.99 1.03 1.06 1.13 1.16 1.08 0.88 0.83 1.10 1.43 1.87 1.89 1.97 1.91 1.50 1.18
0.50 0.46 0.42 0.43 0.46 0.42 0.36 0.33 0.31 0.38 0.45 0.47 0.46 0.45 0.44 0.46 0.50 0.61 0.73 0.94 1.07 1.18 1.14 1.28 1.42 1.36 1.22 1.12 0.98 0.97 1.15 1.19 1.13 0.99 0.88 1.03 1.29 1.43 1.54 1.64 1.53 1.37 1.15
0.45 0.38 0.36 0.38 0.39 0.37 0.27 0.24 0.26 0.33 0.41 0.44 0.48 0.50 0.44 0.41 0.52 0.68 0.91 1.17 1.29 1.36 1.23 1.32 1.55 1.58 1.41 1.37 1.31 1.17 1.22 1.20 1.13 1.11 0.90 0.91 1.10 1.11 1.35 1.41 1.31 1.21 1.14